Measurements were made at the meteorological tower in Juelich (50.90 N / 6.40 E) at an altitude of 100 m,
"Instrument: Fast Greenhouse Gas Analyzer (FGGA), Los Gatos Inc.",
Responsible PI: Dr. Marc von Hobe; Forschungszentrum Juelich GmbH; IEK-7; email: m.von.hobe@fz-juelich.de,
NaN or negative numbers are fill values (i.e. no valid measurements were made at that time),
Uncertainties are given as the 1-sigma standard deviation over each 10 minute intervals. In each interval ~600 individual measurements are carried out so that the standard error of the mean is approximately sigma/sqrt(600).,
time_utc,CO2_ppm,stdev_CO2_ppm,CH4_ppm,stdev_CH4_ppm,H2O_ppm,stdev_H2O_ppm
"2014-09-01 00:05:00 000",401.810,1.74343,2.00930,0.00570649,11574.0,175.967
"2014-09-01 00:15:00 000",401.128,1.64748,2.00588,0.00468384,11609.8,176.281
"2014-09-01 00:25:00 000",402.096,0.769863,2.00990,0.00503977,11616.1,173.080
"2014-09-01 00:35:00 000",402.580,0.926658,2.01143,0.00465966,11619.3,171.186
"2014-09-01 00:45:00 000",402.508,0.943349,2.00975,0.00459123,11615.8,167.391
"2014-09-01 00:55:00 000",402.785,0.893374,2.01093,0.00463670,11644.8,186.444
"2014-09-01 01:05:00 000",403.041,1.05081,2.01223,0.00466165,11638.2,168.586
"2014-09-01 01:15:00 000",403.405,1.26292,2.01307,0.00473587,11617.8,172.010
"2014-09-01 01:25:00 000",402.125,1.24564,2.01564,0.00513988,11634.3,173.451
"2014-09-01 01:35:00 000",402.215,1.15142,2.01632,0.00474716,11631.2,173.579
"2014-09-01 01:45:00 000",403.213,1.11434,2.01880,0.00518570,11593.3,181.825
"2014-09-01 01:55:00 000",404.335,1.17075,2.01673,0.00486026,11586.2,166.450
"2014-09-01 02:05:00 000",405.137,0.827033,2.01646,0.00460031,11560.9,167.507
"2014-09-01 02:15:00 000",405.891,0.902652,2.02066,0.00493503,11579.4,171.031
"2014-09-01 02:25:00 000",404.976,0.783145,2.02547,0.00515729,11616.1,169.719
"2014-09-01 02:35:00 000",404.985,0.703612,2.02963,0.00493684,11625.2,168.013
"2014-09-01 02:45:00 000",406.164,0.930471,2.03166,0.00566600,11631.4,172.336
"2014-09-01 02:55:00 000",405.718,0.894075,2.03240,0.00521930,11607.8,168.994
"2014-09-01 03:05:00 000",405.602,1.19977,2.02873,0.00627323,11635.8,166.427
"2014-09-01 03:15:00 000",406.303,1.85863,2.02804,0.00554024,11644.0,162.469
"2014-09-01 03:25:00 000",405.483,1.41501,2.02637,0.00582121,11651.2,177.415
"2014-09-01 03:35:00 000",405.504,1.83978,2.02553,0.00804680,11660.9,175.286
"2014-09-01 03:45:00 000",403.540,1.61915,2.01293,0.00692151,11653.4,173.868
"2014-09-01 03:55:00 000",405.930,1.30779,2.01449,0.00565485,11672.1,175.480
"2014-09-01 04:05:00 000",405.385,1.83297,2.00670,0.00814439,11584.8,172.347
"2014-09-01 04:15:00 000",402.295,1.78251,1.99472,0.00742203,11597.5,179.305
"2014-09-01 04:25:00 000",401.024,1.41426,1.98909,0.00760899,11863.4,255.631
"2014-09-01 04:35:00 000",401.269,2.06564,1.98803,0.0105574,12324.9,186.742
"2014-09-01 04:45:00 000",401.291,1.26452,1.98467,0.00606343,12517.0,166.784
"2014-09-01 04:55:00 000",401.752,1.00398,1.98562,0.00558008,12588.5,172.383
"2014-09-01 05:05:00 000",402.350,0.867552,1.98873,0.00500865,12653.5,176.626
"2014-09-01 05:15:00 000",402.729,0.854697,1.99145,0.00617726,12742.6,178.831
"2014-09-01 05:25:00 000",403.158,0.673634,1.99212,0.00509162,12736.7,187.259
"2014-09-01 05:35:00 000",403.911,1.05054,1.99786,0.00646791,12753.2,168.071
"2014-09-01 05:45:00 000",405.251,0.737545,2.00296,0.00579553,12831.4,181.608
"2014-09-01 05:55:00 000",406.131,0.860344,2.00103,0.00644439,12878.8,167.036
"2014-09-01 06:05:00 000",405.744,1.44581,1.99843,0.00755869,12913.4,181.000
"2014-09-01 06:15:00 000",406.512,0.844575,1.99971,0.00611144,12970.3,174.294
"2014-09-01 06:25:00 000",405.740,1.81095,1.99884,0.0106200,13032.6,193.920
"2014-09-01 06:35:00 000",404.183,1.11763,1.98884,0.00709330,13303.1,173.845
"2014-09-01 06:45:00 000",403.971,1.18704,1.98662,0.00818234,13514.2,254.505
"2014-09-01 06:55:00 000",402.691,1.24826,1.97494,0.00817028,13506.7,242.688
"2014-09-01 07:05:00 000",401.289,1.54473,1.97045,0.0122132,13328.3,185.614
"2014-09-01 07:15:00 000",399.479,0.944190,1.95755,0.00564981,13306.9,176.121
"2014-09-01 07:25:00 000",398.260,1.50297,1.95226,0.00920714,13504.8,202.306
"2014-09-01 07:35:00 000",396.530,1.50751,1.93382,0.0115345,13725.0,333.343
"2014-09-01 07:45:00 000",396.587,1.40630,1.94219,0.00985527,14452.0,317.853
"2014-09-01 07:55:00 000",397.001,1.41367,1.94388,0.00955021,14333.0,940.670
"2014-09-01 08:05:00 000",394.542,1.02029,1.93621,0.0102497,15755.6,1017.30
"2014-09-01 08:15:00 000",392.993,1.00773,1.93056,0.0112268,13898.4,440.188
"2014-09-01 08:25:00 000",391.815,0.848159,1.92021,0.00488483,16632.9,699.474
"2014-09-01 08:35:00 000",392.707,1.30817,1.93036,0.00417837,15941.5,488.320
"2014-09-01 08:45:00 000",392.665,1.10147,1.93604,0.00290233,14833.3,303.970
"2014-09-01 08:55:00 000",392.267,0.860230,1.93834,0.00556308,13809.8,462.905
"2014-09-01 09:05:00 000",388.788,1.42764,1.90871,0.0118524,13534.0,260.415
"2014-09-01 09:15:00 000",391.448,1.76153,1.92691,0.00717006,13073.5,773.717
"2014-09-01 09:25:00 000",390.451,0.883489,1.91425,0.00877529,11797.2,105.617
"2014-09-01 09:35:00 000",387.757,1.13783,1.90111,0.00398019,13223.7,583.363
"2014-09-01 09:45:00 000",389.874,0.979823,1.90759,0.00356322,12140.6,432.928
"2014-09-01 09:55:00 000",389.512,1.06322,1.90959,0.00307476,12945.8,251.640
"2014-09-01 10:05:00 000",391.641,0.820494,1.91956,0.00508420,11811.5,170.538
"2014-09-01 10:15:00 000",390.288,1.21645,1.91501,0.00687717,12268.6,506.552
"2014-09-01 10:25:00 000",388.851,0.766024,1.90551,0.00408314,12129.2,425.174
"2014-09-01 10:35:00 000",388.010,0.820735,1.90041,0.00446761,11830.5,622.536
"2014-09-01 10:45:00 000",386.906,1.10604,1.89863,0.00316503,11496.4,416.505
"2014-09-01 10:55:00 000",387.089,0.974130,1.90178,0.00373237,11815.7,252.888
"2014-09-01 11:05:00 000",388.072,1.19297,1.91164,0.00331153,11431.4,135.113
"2014-09-01 11:15:00 000",389.979,0.934720,1.91691,0.00352652,11354.8,134.633
"2014-09-01 11:25:00 000",390.003,0.875383,1.91656,0.00559873,11561.8,154.065
"2014-09-01 11:35:00 000",388.200,1.21855,1.91395,0.00783363,11811.1,256.264
"2014-09-01 11:45:00 000",388.336,0.884103,1.91474,0.00394131,11297.7,96.1623
"2014-09-01 11:55:00 000",389.234,0.910599,1.92156,0.00379763,11368.7,82.8643
"2014-09-01 12:05:00 000",389.415,1.08052,1.92573,0.00333550,11436.4,105.513
"2014-09-01 12:15:00 000",389.654,0.726133,1.92340,0.00368813,11621.5,73.5301
"2014-09-01 12:25:00 000",389.011,0.813326,1.92304,0.00453633,11759.3,125.764
"2014-09-01 12:35:00 000",389.047,1.07193,1.92447,0.00328260,12039.4,156.559
"2014-09-01 12:45:00 000",389.607,0.890402,1.92916,0.00349808,11873.6,118.696
"2014-09-01 12:55:00 000",389.441,0.906811,1.92935,0.00348227,11625.0,90.6449
"2014-09-01 13:05:00 000",389.548,0.695074,1.93280,0.00317845,11534.6,82.2285
"2014-09-01 13:15:00 000",389.557,0.844877,1.92718,0.00436953,11306.8,170.509
"2014-09-01 13:25:00 000",389.967,1.01775,1.92596,0.00302664,10901.9,295.371
"2014-09-01 13:35:00 000",389.996,0.866201,1.92473,0.00330919,10446.8,92.0797
"2014-09-01 13:45:00 000",389.852,0.754084,1.92241,0.00294450,10631.4,73.8179
"2014-09-01 13:55:00 000",389.627,1.01749,1.92318,0.00305903,10623.2,197.405
"2014-09-01 14:05:00 000",389.606,1.04257,1.92477,0.00298149,10581.5,134.947
"2014-09-01 14:15:00 000",389.759,0.902742,1.92456,0.00378753,10546.1,118.318
"2014-09-01 14:25:00 000",389.109,0.833181,1.92517,0.00335232,10156.7,306.455
"2014-09-01 14:35:00 000",389.088,1.02327,1.92730,0.00301288,10272.4,108.212
"2014-09-01 14:45:00 000",389.612,1.00975,1.92953,0.00298509,10577.4,117.747
"2014-09-01 14:55:00 000",389.829,0.825625,1.93234,0.00282510,10818.7,100.858
"2014-09-01 15:05:00 000",390.362,0.970958,1.93195,0.00297944,10492.3,141.088
"2014-09-01 15:15:00 000",388.882,0.846536,1.92976,0.00294438,10116.9,356.702
"2014-09-01 15:25:00 000",389.262,0.780358,1.92899,0.00305326,10020.1,152.518
"2014-09-01 15:35:00 000",388.891,0.729284,1.92817,0.00305768,10043.8,184.635
"2014-09-01 15:45:00 000",388.289,0.708589,1.92974,0.00286662,10359.3,167.774
"2014-09-01 15:55:00 000",387.296,0.669894,1.93080,0.00285131,10458.5,73.4445
"2014-09-01 16:05:00 000",387.126,0.628354,1.93456,0.00310604,10729.1,126.713
"2014-09-01 16:15:00 000",388.040,1.54138,1.93739,0.00313926,10900.8,129.333
"2014-09-01 16:25:00 000",390.726,0.901908,1.94110,0.00358295,10765.4,67.2704
"2014-09-01 16:35:00 000",390.392,0.960805,1.94047,0.00340590,10808.4,82.0964
"2014-09-01 16:45:00 000",389.274,0.976598,1.93660,0.00310270,10709.1,88.5153
"2014-09-01 16:55:00 000",388.856,0.762621,1.93510,0.00326586,10514.0,61.2897
"2014-09-01 17:05:00 000",387.741,1.38695,1.93700,0.00353180,10675.4,96.7187
"2014-09-01 17:15:00 000",385.920,0.792696,1.93950,0.00329209,10865.0,65.3485
"2014-09-01 17:25:00 000",385.779,0.686329,1.93834,0.00307304,10816.7,67.5177
"2014-09-01 17:35:00 000",386.690,0.832174,1.93976,0.00350687,10885.8,69.3925
"2014-09-01 17:45:00 000",388.829,0.883673,1.94270,0.00334383,10970.9,66.0730
"2014-09-01 17:55:00 000",387.500,0.847067,1.94470,0.00297267,10999.0,68.1854
"2014-09-01 18:05:00 000",388.693,0.741452,1.94492,0.00318069,11089.9,52.9703
"2014-09-01 18:15:00 000",389.366,0.841379,1.94757,0.00310194,11119.3,57.2119
"2014-09-01 18:25:00 000",390.048,0.812792,1.95221,0.00398049,11148.0,58.6725
"2014-09-01 18:35:00 000",389.444,1.28610,1.95120,0.00416894,11086.5,86.4739
"2014-09-01 18:45:00 000",387.638,0.961563,1.94785,0.00352625,10890.7,88.3831
"2014-09-01 18:55:00 000",385.690,0.714750,1.95192,0.00298752,10738.0,55.2704
"2014-09-01 19:05:00 000",385.561,0.681288,1.95435,0.00334832,10683.7,66.3981
"2014-09-01 19:15:00 000",385.618,0.669529,1.95596,0.00321066,10648.9,53.2478
"2014-09-01 19:25:00 000",386.004,0.678695,1.95085,0.00354785,10626.2,56.0310
"2014-09-01 19:35:00 000",386.677,0.641064,1.95006,0.00410548,10637.3,56.1633
"2014-09-01 19:45:00 000",388.522,1.63666,1.96472,0.00836247,10691.8,74.2429
"2014-09-01 19:55:00 000",390.911,1.13429,1.96728,0.0107771,10978.4,158.670
"2014-09-01 20:05:00 000",393.368,1.26679,1.97693,0.00475299,11277.5,88.0244
"2014-09-01 20:15:00 000",393.813,0.695352,1.96515,0.00355734,11251.8,67.2434
"2014-09-01 20:25:00 000",393.582,0.750212,1.96330,0.00473468,11139.2,79.4693
"2014-09-01 20:35:00 000",393.600,0.828127,1.96385,0.00314529,11048.2,84.1294
"2014-09-01 20:45:00 000",393.761,0.649633,1.96091,0.00276810,11139.8,61.0693
"2014-09-01 20:55:00 000",393.490,0.614467,1.96183,0.00287627,11079.2,54.5495
"2014-09-01 21:05:00 000",393.978,0.736483,1.96692,0.00355825,11188.8,59.5988
"2014-09-01 21:15:00 000",393.567,0.790514,1.97121,0.00478173,11009.6,132.047
"2014-09-01 21:25:00 000",393.979,2.13034,1.97230,0.00442135,10856.2,91.2405
"2014-09-01 21:35:00 000",397.936,1.07199,1.97774,0.00327994,11039.5,55.6701
"2014-09-01 21:45:00 000",399.044,0.786443,1.98161,0.00338672,11088.3,58.6901
"2014-09-01 21:55:00 000",400.546,1.29174,1.98022,0.00324274,11070.6,62.0795
"2014-09-01 22:05:00 000",403.142,1.09769,1.98177,0.00375789,11187.1,64.2627
"2014-09-01 22:15:00 000",405.944,1.59850,2.00417,0.00832384,11312.0,66.5110
"2014-09-01 22:25:00 000",407.490,1.66892,2.01479,0.00390470,11391.5,66.5784
"2014-09-01 22:35:00 000",405.268,2.68659,2.02659,0.00664610,11415.5,82.9473
"2014-09-01 22:45:00 000",403.792,1.76904,2.03589,0.00415297,11301.1,62.2157
"2014-09-01 22:55:00 000",403.836,2.60589,2.04681,0.00774330,11380.5,59.7540
"2014-09-01 23:05:00 000",406.704,2.00312,2.03173,0.00544338,11444.5,62.5883
"2014-09-01 23:15:00 000",409.510,1.29285,2.03863,0.00629756,11509.8,53.5366
"2014-09-01 23:25:00 000",411.306,0.797882,2.04227,0.00516886,11497.1,55.6175
"2014-09-01 23:35:00 000",411.986,0.716423,2.03741,0.00370445,11572.5,63.8149
"2014-09-01 23:45:00 000",412.839,1.03114,2.05209,0.0142792,11582.8,60.0554
"2014-09-01 23:55:00 000",413.000,1.06741,2.05486,0.00529875,11507.7,53.9766
"2014-09-02 00:05:00 000",412.892,1.42504,2.10199,0.0190621,11420.6,66.8434
"2014-09-02 00:15:00 000",414.482,1.52278,2.11001,0.0143687,11376.4,71.3070
"2014-09-02 00:25:00 000",410.200,1.06058,2.07151,0.00794742,11479.4,52.6691
"2014-09-02 00:35:00 000",408.647,1.19753,2.05105,0.00615862,11385.7,73.4022
"2014-09-02 00:45:00 000",407.828,1.32647,2.04473,0.00372755,11299.6,53.7658
"2014-09-02 00:55:00 000",410.281,1.80674,2.04657,0.00373890,11271.6,59.8177
"2014-09-02 01:05:00 000",413.133,1.03792,2.05129,0.00459670,11246.4,51.8394
"2014-09-02 01:15:00 000",408.913,2.68311,2.04684,0.00477057,11235.4,55.8495
"2014-09-02 01:25:00 000",405.730,1.07104,2.04164,0.00400999,11174.3,50.6593
"2014-09-02 01:35:00 000",404.726,0.797911,2.03710,0.00376203,11197.5,57.8169
"2014-09-02 01:45:00 000",405.369,2.48199,2.02916,0.00401336,11139.0,51.7238
"2014-09-02 01:55:00 000",404.924,2.13968,2.03631,0.00423808,11134.5,51.2323
"2014-09-02 02:05:00 000",401.574,0.880268,2.03592,0.00427960,11098.0,60.2182
"2014-09-02 02:15:00 000",401.121,0.602418,2.03292,0.00366731,11060.7,54.3511
"2014-09-02 02:25:00 000",403.032,1.23796,2.03751,0.00427766,11113.3,56.8509
"2014-09-02 02:35:00 000",404.524,0.958439,2.03182,0.00487912,11090.6,59.1654
"2014-09-02 02:45:00 000",408.374,1.50120,2.02813,0.00440073,11076.4,56.0611
"2014-09-02 02:55:00 000",408.742,1.02190,2.02777,0.00718921,11140.3,68.3334
"2014-09-02 03:05:00 000",406.169,0.874099,2.05350,0.00523414,11202.0,63.3390
"2014-09-02 03:15:00 000",407.270,1.35182,2.04322,0.00721976,11157.1,62.2691
"2014-09-02 03:25:00 000",410.035,1.24748,2.01019,0.00708050,11040.7,64.3482
"2014-09-02 03:35:00 000",407.989,0.824745,2.05602,0.00766897,11081.6,63.2617
"2014-09-02 03:45:00 000",409.391,0.867269,2.05028,0.00584998,11053.8,58.6202
"2014-09-02 03:55:00 000",409.729,0.619035,2.05944,0.00495656,11000.4,56.3388
"2014-09-02 04:05:00 000",410.494,0.873246,2.05540,0.00928776,11036.8,71.3368
"2014-09-02 04:15:00 000",410.656,0.781531,2.04718,0.00803950,11069.4,53.8000
"2014-09-02 04:25:00 000",413.152,2.88651,2.02529,0.0147298,11041.4,68.9977
"2014-09-02 04:35:00 000",410.380,1.26359,2.02214,0.00876483,10997.8,65.3466
"2014-09-02 04:45:00 000",409.339,0.730818,2.04069,0.00878788,11072.1,59.7100
"2014-09-02 04:55:00 000",413.085,1.66133,2.06934,0.00910390,11186.0,59.4833
"2014-09-02 05:05:00 000",413.539,0.856058,2.08758,0.00552443,11309.1,123.155
"2014-09-02 05:15:00 000",409.620,2.07499,2.07841,0.00509943,11458.9,65.2981
"2014-09-02 05:25:00 000",415.810,0.973856,2.07433,0.00527614,11311.0,60.6010
"2014-09-02 05:35:00 000",415.994,0.748950,2.07345,0.00474034,11646.4,304.517
"2014-09-02 05:45:00 000",418.056,1.63342,2.06434,0.00852876,12046.4,178.897
"2014-09-02 05:55:00 000",419.349,1.73094,2.05291,0.0127680,12249.8,95.5571
"2014-09-02 06:05:00 000",418.405,1.61876,2.05610,0.0109683,12356.8,58.9427
"2014-09-02 06:15:00 000",419.136,1.83908,2.05660,0.00817023,12535.1,161.508
"2014-09-02 06:25:00 000",422.111,2.10265,2.05600,0.00343893,12134.6,180.066
"2014-09-02 06:35:00 000",426.566,1.34241,2.05664,0.00367309,12517.3,310.479
"2014-09-02 06:45:00 000",426.536,1.69874,2.05090,0.00349764,12635.1,269.886
"2014-09-02 06:55:00 000",430.314,9.80541,2.06466,0.0254694,11560.4,185.631
"2014-09-02 07:05:00 000",438.351,8.80272,2.09054,0.0110862,11434.9,131.575
"2014-09-02 07:15:00 000",448.769,3.78143,2.10107,0.00463160,11809.1,411.004
"2014-09-02 07:25:00 000",441.606,2.40262,2.10031,0.00458217,12108.4,125.900
"2014-09-02 07:35:00 000",438.818,2.93384,2.09629,0.00655242,11997.4,227.909
"2014-09-02 07:45:00 000",436.585,1.28139,2.09071,0.00457690,12269.6,204.989
"2014-09-02 07:55:00 000",431.439,2.12015,2.08223,0.00428611,12094.0,231.562
"2014-09-02 08:05:00 000",425.792,2.51270,2.07675,0.00703084,12546.2,162.032
"2014-09-02 08:15:00 000",420.524,1.36236,2.06257,0.00985126,12413.9,335.980
"2014-09-02 08:25:00 000",414.691,2.83650,2.02080,0.0245212,11732.0,291.683
"2014-09-02 08:35:00 000",413.769,1.40599,2.01724,0.0141020,11432.8,128.568
"2014-09-02 08:45:00 000",411.959,1.14806,1.98400,0.00900928,11072.2,200.285
"2014-09-02 08:55:00 000",411.019,1.15718,1.98299,0.0176869,10989.5,284.616
"2014-09-02 09:05:00 000",410.655,1.19988,1.98865,0.00598109,11052.1,143.622
"2014-09-02 09:15:00 000",411.188,2.20442,1.99364,0.00529260,11246.0,252.098
"2014-09-02 09:25:00 000",414.521,1.58723,1.99478,0.00514727,11220.3,120.173
"2014-09-02 09:35:00 000",412.082,2.45447,1.99141,0.00844107,11407.0,228.638
"2014-09-02 09:45:00 000",405.444,1.44738,1.96311,0.00472996,11185.2,126.966
"2014-09-02 09:55:00 000",407.865,1.06735,1.96076,0.00330452,10919.8,239.395
"2014-09-02 10:05:00 000",403.661,2.71903,1.96115,0.00372070,10808.0,205.254
"2014-09-02 10:15:00 000",399.116,1.35116,1.96099,0.00465689,10801.1,204.532
"2014-09-02 10:25:00 000",399.845,1.72632,1.96472,0.00441795,10657.9,181.961
"2014-09-02 10:35:00 000",400.330,1.67516,1.96834,0.00426987,10948.8,208.205
"2014-09-02 10:45:00 000",397.952,1.37954,1.96654,0.00472694,10748.8,162.018
"2014-09-02 10:55:00 000",397.007,1.66980,1.96848,0.00582413,10694.8,107.203
"2014-09-02 11:05:00 000",395.932,1.11598,1.96889,0.00301550,10681.0,79.0043
"2014-09-02 11:15:00 000",397.538,1.04101,1.97340,0.00484947,10966.9,127.858
"2014-09-02 11:25:00 000",394.348,1.43198,1.96873,0.00756644,10723.8,154.915
"2014-09-02 11:35:00 000",391.052,0.960486,1.95569,0.00302689,10615.2,186.848
"2014-09-02 11:45:00 000",390.298,0.748073,1.95300,0.00444745,10703.3,172.030
"2014-09-02 11:55:00 000",390.289,0.766465,1.96507,0.00774779,10532.0,96.2761
"2014-09-02 12:05:00 000",389.568,1.05634,1.98661,0.00780536,10948.7,169.880
"2014-09-02 12:15:00 000",389.106,0.710642,2.00579,0.00329540,10630.1,270.006
"2014-09-02 12:25:00 000",388.660,0.725877,1.99444,0.00765431,10782.1,132.955
"2014-09-02 12:35:00 000",389.002,0.823145,1.98453,0.00498976,10747.1,66.4747
"2014-09-02 12:45:00 000",388.513,0.937420,1.98315,0.00379323,10894.7,70.7695
"2014-09-02 12:55:00 000",388.568,0.572941,1.98553,0.00295116,10896.4,87.5068
"2014-09-02 13:05:00 000",387.141,0.899593,1.98210,0.00315431,11122.5,128.895
"2014-09-02 13:15:00 000",386.949,0.723670,1.97474,0.00394578,11159.5,99.4118
"2014-09-02 13:25:00 000",386.436,0.736265,1.96982,0.00287043,11395.4,94.0630
"2014-09-02 13:35:00 000",385.689,0.743979,1.96950,0.00314905,11530.2,115.931
"2014-09-02 13:45:00 000",386.061,0.785261,1.97558,0.00293571,11569.1,113.701
"2014-09-02 13:55:00 000",386.525,0.763173,1.97857,0.00313789,11538.9,95.3018
"2014-09-02 14:05:00 000",386.795,0.678581,1.97171,0.00401182,11306.1,153.012
"2014-09-02 14:15:00 000",386.561,0.654330,1.96902,0.00292094,11389.6,83.1948
"2014-09-02 14:25:00 000",386.812,0.645361,1.97075,0.00546985,11278.7,95.7091
"2014-09-02 14:35:00 000",386.079,0.768322,1.98849,0.0117559,11798.9,235.008
"2014-09-02 14:45:00 000",387.268,0.710596,2.00982,0.00340033,12206.5,231.527
"2014-09-02 14:55:00 000",386.993,0.796284,2.00818,0.00320595,12909.3,180.857
"2014-09-02 15:05:00 000",386.905,0.740893,2.00239,0.00361252,12754.0,58.0956
"2014-09-02 15:15:00 000",387.552,1.49121,1.98883,0.00865099,12929.3,107.542
"2014-09-02 15:25:00 000",389.748,0.829047,1.96359,0.00527018,13015.6,169.643
"2014-09-02 15:35:00 000",392.125,2.18077,1.96288,0.00368397,13247.6,90.3749
"2014-09-02 15:45:00 000",399.451,3.11859,1.96564,0.00433622,13334.5,108.035
"2014-09-02 15:55:00 000",404.606,1.00580,1.96984,0.00306991,13633.4,78.1460
"2014-09-02 16:05:00 000",402.744,1.17520,1.97156,0.00515340,13585.6,79.8831
"2014-09-02 16:15:00 000",400.013,0.988640,1.98248,0.00678587,13719.6,83.1917
"2014-09-02 16:25:00 000",395.853,1.06195,1.99690,0.00352314,13862.5,63.4618
"2014-09-02 16:35:00 000",398.214,2.97468,2.00434,0.00468295,13767.8,60.9944
"2014-09-02 16:45:00 000",402.115,1.28173,2.01285,0.00447352,13792.9,65.3883
"2014-09-02 16:55:00 000",402.132,1.63160,2.02630,0.00638877,13758.8,70.0317
"2014-09-02 17:05:00 000",400.096,0.766954,2.02295,0.00728842,13662.6,69.3149
"2014-09-02 17:15:00 000",400.926,0.923655,2.01149,0.00409338,13646.9,71.4173
"2014-09-02 17:25:00 000",399.370,0.985633,2.00645,0.00365364,13669.9,65.5232
"2014-09-02 17:35:00 000",397.367,0.856643,2.00428,0.00337225,13649.2,56.7590
"2014-09-02 17:45:00 000",397.330,0.736109,2.00461,0.00315124,13678.2,59.6987
"2014-09-02 17:55:00 000",397.956,0.699167,2.00778,0.00374196,13666.5,60.7859
"2014-09-02 18:05:00 000",399.399,0.889039,2.01301,0.00376089,13663.3,60.3350
"2014-09-02 18:15:00 000",400.785,0.733881,2.01334,0.00357783,13660.5,57.1244
"2014-09-02 18:25:00 000",400.714,0.795811,2.01485,0.00363701,13705.9,58.9769
"2014-09-02 18:35:00 000",400.113,0.744433,2.00831,0.00401765,13712.0,57.8842
"2014-09-02 18:45:00 000",399.907,0.838214,2.00637,0.00375555,13684.0,62.6632
"2014-09-02 18:55:00 000",399.174,0.847936,2.00105,0.00455000,13717.5,76.8251
"2014-09-02 19:05:00 000",398.580,0.949204,2.00512,0.00442029,13687.7,75.6645
"2014-09-02 19:15:00 000",398.524,0.879338,2.00499,0.00477296,13691.1,89.6694
"2014-09-02 19:25:00 000",399.544,0.839643,2.00447,0.00491524,13632.7,90.9650
"2014-09-02 19:35:00 000",400.487,0.725054,2.00666,0.00415506,13578.5,95.5221
"2014-09-02 19:45:00 000",401.493,0.793747,2.00681,0.00419897,13557.2,104.951
"2014-09-02 19:55:00 000",401.876,0.740733,2.00619,0.00389276,13420.0,112.363
"2014-09-02 20:05:00 000",403.365,0.885894,2.00761,0.00374148,13340.4,95.1705
"2014-09-02 20:15:00 000",405.075,0.765516,2.00989,0.00396711,13337.5,87.5636
"2014-09-02 20:25:00 000",405.551,0.671856,2.01330,0.00395000,13318.5,89.4618
"2014-09-02 20:35:00 000",406.373,0.699046,2.01589,0.00440798,13304.8,72.3956
"2014-09-02 20:45:00 000",406.915,0.698938,2.02105,0.00424646,13277.5,65.0231
"2014-09-02 20:55:00 000",406.913,0.753771,2.02949,0.00400339,13295.4,66.5499
"2014-09-02 21:05:00 000",407.153,0.823064,2.03158,0.00437575,13290.2,62.2938
"2014-09-02 21:15:00 000",408.387,0.805197,2.03952,0.00421874,13346.4,62.0034
"2014-09-02 21:25:00 000",408.644,0.790971,2.03934,0.00389194,13393.1,61.4141
"2014-09-02 21:35:00 000",407.811,1.06140,2.04274,0.00355300,13613.2,92.5470
"2014-09-02 21:45:00 000",409.007,1.15289,2.04180,0.00343148,13497.1,67.0419
"2014-09-02 21:55:00 000",410.351,0.855738,2.04409,0.00396465,13404.2,90.1961
"2014-09-02 22:05:00 000",410.296,0.921367,2.04860,0.00449233,13404.3,93.7860
"2014-09-02 22:15:00 000",409.898,1.09071,2.04903,0.00379716,13404.1,92.5088
"2014-09-02 22:25:00 000",409.341,1.01046,2.05149,0.00397137,13405.9,108.373
"2014-09-02 22:35:00 000",408.866,0.987929,2.05457,0.00393390,13381.3,109.268
"2014-09-02 22:45:00 000",408.423,0.955487,2.05354,0.00465806,13466.6,121.557
"2014-09-02 22:55:00 000",408.844,1.06295,2.05325,0.00478077,13474.6,117.463
"2014-09-02 23:05:00 000",409.424,0.906610,2.04597,0.00545345,13399.7,117.559
"2014-09-02 23:15:00 000",409.826,1.01914,2.04230,0.00474492,13387.6,136.905
"2014-09-02 23:25:00 000",410.366,1.16765,2.03903,0.00512024,13333.0,130.507
"2014-09-02 23:35:00 000",411.399,0.919702,2.04142,0.00449775,13217.7,123.363
"2014-09-02 23:45:00 000",411.062,1.16344,2.04196,0.00449195,13212.9,132.270
"2014-09-02 23:55:00 000",410.527,1.28566,2.03979,0.00499824,13257.0,148.030
"2014-09-03 00:05:00 000",410.264,1.43998,2.04042,0.00525419,13248.3,146.698
"2014-09-03 00:15:00 000",410.487,0.969334,2.04065,0.00465647,13241.5,143.317
"2014-09-03 00:25:00 000",410.487,1.11651,2.03847,0.00475701,13196.4,143.650
"2014-09-03 00:35:00 000",413.637,1.55075,2.03835,0.00464981,13194.7,139.257
"2014-09-03 00:45:00 000",415.097,1.09358,2.04426,0.00522864,13044.8,165.562
"2014-09-03 00:55:00 000",414.647,0.822339,2.05247,0.00555207,12941.5,138.319
"2014-09-03 01:05:00 000",415.159,1.01616,2.05607,0.00501006,13017.8,147.555
"2014-09-03 01:15:00 000",414.624,1.35677,2.05836,0.00511823,13015.8,149.679
"2014-09-03 01:25:00 000",413.896,1.13213,2.06064,0.00599624,13079.6,148.279
"2014-09-03 01:35:00 000",413.913,1.06437,2.05380,0.00545628,13107.8,160.881
"2014-09-03 01:45:00 000",414.815,1.19259,2.05319,0.00514556,13049.6,170.405
"2014-09-03 01:55:00 000",416.707,1.01688,2.06106,0.00546569,12951.2,159.004
"2014-09-03 02:05:00 000",417.468,0.974946,2.06308,0.00556224,12891.1,160.701